| time (UTC) | temp F | wind direction | speed MPH | gust MPH | rain 1hr in | rain 24hr in | rain mn in | humidity % | barometer mb |
| 20260507191605 | 61 | 0 | 2.0 | 10.0 | 0.00 | 0.00 | 0.00 | 80 | 1019.6 |
| 20260507191055 | 61 | 288 | 1.0 | 6.0 | 0.00 | 0.00 | 0.00 | 79 | 1019.6 |
| 20260507190553 | 61 | 276 | 1.0 | 5.0 | 0.00 | 0.00 | 0.00 | 80 | 1019.6 |
| 20260507190059 | 61 | 257 | 1.0 | 6.0 | 0.00 | 0.00 | 0.00 | 80 | 1019.6 |
| 20260507185552 | 61 | 234 | 2.0 | 8.0 | 0.00 | 0.00 | 0.00 | 80 | 1019.6 |
| 20260507185054 | 61 | 272 | 2.0 | 8.0 | 0.00 | 0.00 | 0.00 | 80 | 1019.6 |
| 20260507184600 | 61 | 243 | 2.0 | 5.0 | 0.00 | 0.00 | 0.00 | 80 | 1019.7 |
| 20260507184054 | 61 | 233 | 1.0 | 8.0 | 0.00 | 0.00 | 0.00 | 80 | 1019.6 |
| 20260507183554 | 60 | 250 | 0.0 | 8.0 | 0.00 | 0.00 | 0.00 | 81 | 1019.7 |
| 20260507183055 | 60 | 221 | 2.0 | 8.0 | 0.00 | 0.00 | 0.00 | 80 | 1019.8 |
| 20260507182556 | 60 | 0 | 1.0 | 8.0 | 0.00 | 0.00 | 0.00 | 81 | 1019.9 |
| 20260507182054 | 59 | 290 | 4.0 | 8.0 | 0.00 | 0.00 | 0.00 | 81 | 1019.9 |
| 20260507181554 | 60 | 307 | 1.0 | 7.0 | 0.00 | 0.00 | 0.00 | 81 | 1019.8 |
| 20260507181054 | 60 | 265 | 2.0 | 6.0 | 0.00 | 0.00 | 0.00 | 80 | 1019.8 |
| 20260507180555 | 60 | 0 | 2.0 | 6.0 | 0.00 | 0.00 | 0.00 | 80 | 1019.8 |
| 20260507175554 | 60 | 0 | 1.0 | 7.0 | 0.00 | 0.00 | 0.00 | 81 | 1019.9 |
| 20260507175055 | 59 | 298 | 1.0 | 5.0 | 0.00 | 0.00 | 0.00 | 82 | 1019.8 |
| 20260507174613 | 59 | 262 | 1.0 | 5.0 | 0.00 | 0.00 | 0.00 | 82 | 1019.8 |
| 20260507174053 | 59 | 286 | 1.0 | 6.0 | 0.00 | 0.00 | 0.00 | 82 | 1019.7 |
| 20260507173556 | 59 | 0 | 1.0 | 6.0 | 0.00 | 0.00 | 0.00 | 81 | 1019.9 |
| 20260507173058 | 59 | 205 | 1.0 | 7.0 | 0.00 | 0.00 | 0.00 | 82 | 1019.8 |
| 20260507172557 | 59 | 282 | 1.0 | 7.0 | 0.00 | 0.00 | 0.00 | 83 | 1019.8 |
| 20260507172054 | 58 | 247 | 2.0 | 5.0 | 0.00 | 0.00 | 0.00 | 83 | 1019.8 |
| 20260507171613 | 58 | 165 | 1.0 | 5.0 | 0.00 | 0.00 | 0.00 | 83 | 1019.8 |
| 20260507171055 | 57 | 130 | 1.0 | 9.0 | 0.00 | 0.00 | 0.00 | 84 | 1019.8 |
| 20260507170554 | 57 | 240 | 2.0 | 9.0 | 0.00 | 0.00 | 0.00 | 85 | 1019.8 |
| 20260507170100 | 56 | 157 | 2.0 | 6.0 | 0.00 | 0.00 | 0.00 | 85 | 1019.7 |
| 20260507165554 | 56 | 214 | 1.0 | 7.0 | 0.00 | 0.00 | 0.00 | 85 | 1019.7 |
| 20260507165055 | 56 | 175 | 1.0 | 7.0 | 0.00 | 0.00 | 0.00 | 86 | 1019.9 |
| 20260507164603 | 56 | 218 | 4.0 | 7.0 | 0.00 | 0.00 | 0.00 | 86 | 1019.8 |
| 20260507164054 | 56 | 149 | 2.0 | 7.0 | 0.00 | 0.00 | 0.00 | 87 | 1019.8 |
| 20260507163555 | 55 | 196 | 3.0 | 7.0 | 0.00 | 0.00 | 0.00 | 87 | 1019.8 |
| 20260507163100 | 55 | 175 | 2.0 | 5.0 | 0.00 | 0.00 | 0.00 | 88 | 1019.7 |
| 20260507162554 | 55 | 221 | 2.0 | 6.0 | 0.00 | 0.00 | 0.00 | 88 | 1019.8 |
| 20260507162055 | 55 | 219 | 2.0 | 6.0 | 0.00 | 0.00 | 0.00 | 89 | 1019.7 |
| 20260507161601 | 55 | 234 | 1.0 | 6.0 | 0.00 | 0.00 | 0.00 | 89 | 1019.8 |
| 20260507161053 | 55 | 162 | 1.0 | 8.0 | 0.00 | 0.00 | 0.00 | 89 | 1019.7 |
| 20260507160556 | 55 | 157 | 3.0 | 8.0 | 0.00 | 0.00 | 0.00 | 89 | 1019.7 |
| 20260507160056 | 54 | 203 | 1.0 | 6.0 | 0.00 | 0.00 | 0.00 | 90 | 1019.8 |
| 20260507155554 | 54 | 143 | 1.0 | 6.0 | 0.00 | 0.00 | 0.00 | 90 | 1019.7 |
| 20260507155053 | 54 | 126 | 1.0 | 4.0 | 0.00 | 0.00 | 0.00 | 90 | 1019.8 |
| 20260507154602 | 54 | 153 | 1.0 | 5.0 | 0.00 | 0.00 | 0.00 | 90 | 1019.8 |
| 20260507154054 | 54 | 115 | 1.0 | 5.0 | 0.00 | 0.00 | 0.00 | 90 | 1019.8 |
| 20260507153554 | 54 | 151 | 1.0 | 7.0 | 0.00 | 0.00 | 0.00 | 90 | 1019.8 |
| 20260507153105 | 54 | 130 | 2.0 | 7.0 | 0.00 | 0.00 | 0.00 | 90 | 1019.8 |
| 20260507152554 | 54 | 150 | 3.0 | 7.0 | 0.00 | 0.00 | 0.00 | 91 | 1019.9 |
| 20260507152056 | 54 | 127 | 3.0 | 7.0 | 0.00 | 0.00 | 0.00 | 91 | 1019.8 |
| 20260507151554 | 54 | 183 | 0.0 | 6.0 | 0.00 | 0.00 | 0.00 | 91 | 1019.8 |
| 20260507151057 | 53 | 182 | 2.0 | 6.0 | 0.00 | 0.00 | 0.00 | 91 | 1019.8 |
| 20260507150552 | 53 | 154 | 2.0 | 6.0 | 0.00 | 0.00 | 0.00 | 91 | 1019.8 |
| 20260507150052 | 53 | 161 | 2.0 | 7.0 | 0.00 | 0.00 | 0.00 | 91 | 1019.8 |
| 20260507145554 | 53 | 178 | 2.0 | 7.0 | 0.00 | 0.00 | 0.00 | 91 | 1019.7 |
| 20260507145053 | 53 | 138 | 3.0 | 7.0 | 0.00 | 0.00 | 0.00 | 91 | 1019.7 |
| 20260507144555 | 53 | 161 | 3.0 | 7.0 | 0.00 | 0.00 | 0.00 | 91 | 1019.7 |
| 20260507144052 | 53 | 151 | 2.0 | 6.0 | 0.00 | 0.00 | 0.00 | 91 | 1019.8 |
| 20260507143556 | 53 | 167 | 2.0 | 6.0 | 0.00 | 0.00 | 0.00 | 91 | 1019.7 |
| 20260507143056 | 53 | 161 | 1.0 | 7.0 | 0.00 | 0.00 | 0.00 | 91 | 1019.7 |
| 20260507142555 | 53 | 184 | 3.0 | 8.0 | 0.00 | 0.00 | 0.00 | 91 | 1019.7 |
| 20260507142054 | 53 | 173 | 3.0 | 9.0 | 0.00 | 0.00 | 0.00 | 91 | 1019.6 |
| 20260507141558 | 53 | 155 | 3.0 | 9.0 | 0.00 | 0.00 | 0.00 | 91 | 1019.7 |
| 20260507141054 | 53 | 160 | 3.0 | 9.0 | 0.00 | 0.00 | 0.00 | 91 | 1019.6 |
| 20260507140553 | 53 | 165 | 1.0 | 5.0 | 0.00 | 0.00 | 0.00 | 92 | 1019.6 |
| 20260507140106 | 53 | 211 | 1.0 | 7.0 | 0.00 | 0.00 | 0.00 | 92 | 1019.6 |
| 20260507135554 | 53 | 216 | 2.0 | 7.0 | 0.00 | 0.00 | 0.00 | 92 | 1019.6 |
| 20260507135054 | 53 | 180 | 1.0 | 6.0 | 0.00 | 0.00 | 0.00 | 92 | 1019.5 |
| 20260507134553 | 53 | 222 | 2.0 | 6.0 | 0.00 | 0.00 | 0.00 | 92 | 1019.4 |
| 20260507134053 | 53 | 110 | 2.0 | 6.0 | 0.00 | 0.00 | 0.00 | 92 | 1019.4 |
| 20260507133555 | 53 | 172 | 3.0 | 6.0 | 0.00 | 0.00 | 0.00 | 92 | 1019.4 |
| 20260507133101 | 53 | 164 | 2.0 | 6.0 | 0.00 | 0.00 | 0.00 | 92 | 1019.3 |
| 20260507132554 | 53 | 168 | 2.0 | 5.0 | 0.00 | 0.00 | 0.00 | 92 | 1019.3 |
| 20260507132053 | 53 | 159 | 2.0 | 7.0 | 0.00 | 0.00 | 0.00 | 92 | 1019.3 |
| 20260507131604 | 53 | 150 | 3.0 | 7.0 | 0.00 | 0.00 | 0.00 | 92 | 1019.3 |
| 20260507131055 | 53 | 148 | 3.0 | 7.0 | 0.00 | 0.00 | 0.00 | 92 | 1019.3 |
| 20260507130554 | 53 | 140 | 3.0 | 7.0 | 0.00 | 0.00 | 0.00 | 92 | 1019.3 |
| 20260507130108 | 53 | 136 | 2.0 | 6.0 | 0.00 | 0.00 | 0.00 | 92 | 1019.2 |
| 20260507125554 | 53 | 189 | 3.0 | 7.0 | 0.00 | 0.00 | 0.00 | 92 | 1019.2 |
| 20260507125055 | 53 | 177 | 1.0 | 7.0 | 0.00 | 0.00 | 0.00 | 92 | 1019.2 |
| 20260507124634 | 53 | 150 | 3.0 | 6.0 | 0.00 | 0.00 | 0.00 | 92 | 1019.1 |
| 20260507124054 | 53 | 219 | 1.0 | 5.0 | 0.00 | 0.00 | 0.00 | 92 | 1019.1 |
| 20260507123554 | 53 | 215 | 1.0 | 6.0 | 0.00 | 0.00 | 0.00 | 92 | 1019.2 |
| 20260507123057 | 53 | 227 | 1.0 | 6.0 | 0.00 | 0.00 | 0.00 | 92 | 1019.2 |
| 20260507122554 | 53 | 198 | 1.0 | 6.0 | 0.00 | 0.00 | 0.00 | 92 | 1019.2 |
| 20260507122054 | 53 | 224 | 1.0 | 6.0 | 0.00 | 0.00 | 0.00 | 92 | 1019.2 |
| 20260507121557 | 53 | 238 | 1.0 | 5.0 | 0.00 | 0.00 | 0.00 | 92 | 1019.1 |
| 20260507121051 | 53 | 225 | 0.0 | 3.0 | 0.00 | 0.00 | 0.00 | 92 | 1019.1 |
| 20260507120551 | 53 | 217 | 1.0 | 4.0 | 0.00 | 0.00 | 0.00 | 92 | 1019.2 |
| 20260507120058 | 53 | 224 | 1.0 | 5.0 | 0.00 | 0.00 | 0.00 | 92 | 1019.1 |
| 20260507115555 | 53 | 230 | 1.0 | 6.0 | 0.00 | 0.00 | 0.00 | 92 | 1019.2 |
| 20260507115057 | 53 | 179 | 2.0 | 6.0 | 0.00 | 0.00 | 0.00 | 92 | 1019.2 |
| 20260507114612 | 53 | 177 | 1.0 | 6.0 | 0.00 | 0.00 | 0.00 | 92 | 1019.2 |
| 20260507114054 | 53 | 227 | 3.0 | 5.0 | 0.00 | 0.00 | 0.00 | 92 | 1019.4 |
| 20260507113554 | 53 | 182 | 2.0 | 5.0 | 0.00 | 0.00 | 0.00 | 92 | 1019.4 |
| 20260507113057 | 53 | 221 | 1.0 | 5.0 | 0.00 | 0.00 | 0.00 | 92 | 1019.4 |
| 20260507112556 | 53 | 202 | 0.0 | 7.0 | 0.00 | 0.00 | 0.00 | 92 | 1019.4 |
| 20260507112054 | 53 | 178 | 2.0 | 7.0 | 0.00 | 0.00 | 0.00 | 92 | 1019.4 |
| 20260507111553 | 53 | 229 | 1.0 | 7.0 | 0.00 | 0.00 | 0.00 | 92 | 1019.4 |
| 20260507111054 | 53 | 253 | 1.0 | 5.0 | 0.00 | 0.00 | 0.00 | 92 | 1019.4 |
| 20260507110554 | 53 | 240 | 1.0 | 4.0 | 0.00 | 0.00 | 0.00 | 92 | 1019.4 |
| 20260507110054 | 53 | 0 | 0.0 | 4.0 | 0.00 | 0.00 | 0.00 | 92 | 1019.3 |
| 20260507105554 | 53 | 248 | 1.0 | 6.0 | 0.00 | 0.00 | 0.00 | 92 | 1019.3 |
| 20260507105055 | 53 | 223 | 1.0 | 6.0 | 0.00 | 0.00 | 0.00 | 92 | 1019.4 |
| 20260507104557 | 53 | 165 | 0.0 | 5.0 | 0.00 | 0.00 | 0.00 | 92 | 1019.4 |
| 20260507104055 | 53 | 210 | 1.0 | 5.0 | 0.00 | 0.00 | 0.00 | 92 | 1019.4 |
| 20260507103556 | 53 | 213 | 1.0 | 5.0 | 0.00 | 0.00 | 0.00 | 92 | 1019.4 |
| 20260507103056 | 53 | 219 | 1.0 | 5.0 | 0.00 | 0.00 | 0.00 | 92 | 1019.4 |
| 20260507102554 | 53 | 200 | 1.0 | 5.0 | 0.00 | 0.00 | 0.00 | 92 | 1019.5 |
| 20260507102055 | 53 | 223 | 1.0 | 5.0 | 0.00 | 0.00 | 0.00 | 92 | 1019.5 |
| 20260507101557 | 53 | 227 | 0.0 | 3.0 | 0.00 | 0.00 | 0.00 | 92 | 1019.5 |
| 20260507101055 | 53 | 260 | 0.0 | 7.0 | 0.00 | 0.00 | 0.00 | 92 | 1019.5 |
| 20260507100554 | 53 | 213 | 1.0 | 7.0 | 0.00 | 0.00 | 0.00 | 92 | 1019.4 |
| 20260507100058 | 53 | 243 | 1.0 | 5.0 | 0.00 | 0.00 | 0.00 | 92 | 1019.4 |
| 20260507095554 | 53 | 294 | 1.0 | 5.0 | 0.00 | 0.00 | 0.00 | 92 | 1019.4 |
| 20260507095054 | 53 | 204 | 1.0 | 5.0 | 0.00 | 0.00 | 0.00 | 92 | 1019.5 |
| 20260507094553 | 53 | 236 | 0.0 | 7.0 | 0.00 | 0.00 | 0.00 | 92 | 1019.6 |
| 20260507094054 | 53 | 222 | 1.0 | 7.0 | 0.00 | 0.00 | 0.00 | 92 | 1019.6 |
| 20260507093554 | 53 | 220 | 3.0 | 7.0 | 0.00 | 0.00 | 0.00 | 92 | 1019.7 |
| 20260507093058 | 53 | 219 | 2.0 | 5.0 | 0.00 | 0.00 | 0.00 | 92 | 1019.6 |
| 20260507092554 | 53 | 242 | 1.0 | 5.0 | 0.00 | 0.00 | 0.00 | 92 | 1019.6 |
| 20260507092053 | 53 | 238 | 0.0 | 7.0 | 0.00 | 0.00 | 0.00 | 92 | 1019.6 |
| 20260507091559 | 53 | 211 | 2.0 | 7.0 | 0.00 | 0.00 | 0.00 | 92 | 1019.6 |
| 20260507091056 | 53 | 219 | 1.0 | 6.0 | 0.00 | 0.00 | 0.00 | 92 | 1019.7 |
| 20260507090554 | 54 | 209 | 1.0 | 6.0 | 0.00 | 0.00 | 0.00 | 92 | 1019.7 |
| 20260507090106 | 54 | 199 | 1.0 | 6.0 | 0.00 | 0.00 | 0.00 | 92 | 1019.8 |
| 20260507085554 | 54 | 223 | 1.0 | 6.0 | 0.00 | 0.00 | 0.00 | 92 | 1019.8 |
| 20260507085055 | 54 | 218 | 2.0 | 7.0 | 0.00 | 0.00 | 0.00 | 91 | 1019.8 |
| 20260507084555 | 54 | 235 | 1.0 | 7.0 | 0.00 | 0.00 | 0.00 | 92 | 1019.9 |
| 20260507084055 | 54 | 217 | 3.0 | 7.0 | 0.00 | 0.00 | 0.00 | 92 | 1019.8 |
| 20260507083554 | 54 | 192 | 0.0 | 5.0 | 0.00 | 0.00 | 0.00 | 92 | 1019.9 |
| 20260507083058 | 54 | 167 | 2.0 | 5.0 | 0.00 | 0.00 | 0.00 | 92 | 1019.9 |
| 20260507082554 | 54 | 0 | 2.0 | 5.0 | 0.00 | 0.00 | 0.00 | 92 | 1019.9 |
| 20260507082055 | 54 | 251 | 1.0 | 5.0 | 0.00 | 0.00 | 0.00 | 92 | 1019.9 |
| 20260507081557 | 54 | 209 | 1.0 | 4.0 | 0.00 | 0.00 | 0.00 | 92 | 1019.9 |
| 20260507081055 | 54 | 219 | 1.0 | 6.0 | 0.00 | 0.00 | 0.00 | 92 | 1020.0 |
| 20260507080551 | 54 | 148 | 2.0 | 6.0 | 0.00 | 0.00 | 0.00 | 92 | 1020.0 |
| 20260507075558 | 54 | 0 | 1.0 | 5.0 | 0.00 | 0.00 | 0.00 | 92 | 1020.0 |
| 20260507075059 | 54 | 0 | 1.0 | 7.0 | 0.00 | 0.00 | 0.00 | 92 | 1019.9 |
| 20260507074607 | 54 | 200 | 2.0 | 7.0 | 0.00 | 0.00 | 0.00 | 92 | 1020.0 |
| 20260507074053 | 54 | 153 | 1.0 | 7.0 | 0.00 | 0.00 | 0.00 | 92 | 1020.0 |
| 20260507073557 | 55 | 154 | 3.0 | 7.0 | 0.00 | 0.00 | 0.00 | 92 | 1020.0 |
| 20260507073058 | 55 | 208 | 2.0 | 7.0 | 0.00 | 0.00 | 0.00 | 92 | 1020.1 |
| 20260507072555 | 55 | 175 | 3.0 | 7.0 | 0.00 | 0.00 | 0.00 | 92 | 1020.0 |
| 20260507072054 | 55 | 169 | 3.0 | 7.0 | 0.00 | 0.00 | 0.00 | 92 | 1020.0 |
| 20260507071555 | 55 | 241 | 2.0 | 7.0 | 0.00 | 0.00 | 0.00 | 92 | 1019.9 |
| 20260507071056 | 55 | 170 | 1.0 | 5.0 | 0.00 | 0.00 | 0.00 | 92 | 1019.9 |
| 20260507070554 | 55 | 243 | 2.0 | 6.0 | 0.00 | 0.00 | 0.00 | 92 | 1020.0 |
| 20260507070115 | 55 | 239 | 1.0 | 7.0 | 0.00 | 0.00 | 0.00 | 92 | 1019.9 |
| 20260507065555 | 55 | 221 | 2.0 | 7.0 | 0.00 | 0.00 | 0.00 | 92 | 1019.9 |
| 20260507065054 | 55 | 238 | 2.0 | 7.0 | 0.00 | 0.00 | 0.00 | 92 | 1019.9 |
| 20260507064605 | 55 | 164 | 3.0 | 7.0 | 0.00 | 0.00 | 0.00 | 92 | 1019.9 |
| 20260507064056 | 55 | 232 | 2.0 | 5.0 | 0.00 | 0.00 | 0.00 | 92 | 1019.9 |
| 20260507063557 | 55 | 219 | 2.0 | 5.0 | 0.00 | 0.00 | 0.00 | 92 | 1019.9 |
| 20260507063059 | 55 | 223 | 2.0 | 9.0 | 0.00 | 0.00 | 0.00 | 92 | 1019.9 |
| 20260507062555 | 55 | 242 | 2.0 | 9.0 | 0.00 | 0.00 | 0.00 | 92 | 1019.8 |
| 20260507062057 | 55 | 221 | 2.0 | 9.0 | 0.00 | 0.00 | 0.00 | 92 | 1019.8 |
| 20260507061554 | 55 | 215 | 2.0 | 7.0 | 0.00 | 0.00 | 0.00 | 92 | 1019.9 |
| 20260507061057 | 55 | 222 | 2.0 | 7.0 | 0.00 | 0.00 | 0.00 | 92 | 1019.8 |
| 20260507060559 | 55 | 206 | 2.0 | 7.0 | 0.00 | 0.00 | 0.00 | 92 | 1019.8 |
| 20260507060056 | 55 | 221 | 1.0 | 5.0 | 0.00 | 0.00 | 0.00 | 92 | 1019.8 |
| 20260507055554 | 55 | 242 | 2.0 | 6.0 | 0.00 | 0.00 | 0.00 | 91 | 1019.7 |
| 20260507055051 | 55 | 233 | 1.0 | 6.0 | 0.00 | 0.00 | 0.00 | 91 | 1019.7 |
| 20260507054556 | 55 | 242 | 2.0 | 8.0 | 0.00 | 0.00 | 0.00 | 91 | 1019.7 |
| 20260507054055 | 55 | 258 | 2.0 | 8.0 | 0.00 | 0.00 | 0.00 | 91 | 1019.6 |
| 20260507053552 | 55 | 219 | 2.0 | 8.0 | 0.00 | 0.00 | 0.00 | 91 | 1019.6 |
| 20260507053054 | 55 | 236 | 1.0 | 5.0 | 0.00 | 0.00 | 0.00 | 91 | 1019.6 |
| 20260507052555 | 55 | 0 | 2.0 | 9.0 | 0.00 | 0.00 | 0.00 | 91 | 1019.7 |
| 20260507052055 | 55 | 199 | 2.0 | 9.0 | 0.00 | 0.00 | 0.00 | 91 | 1019.7 |
| 20260507051603 | 55 | 214 | 1.0 | 9.0 | 0.00 | 0.00 | 0.00 | 91 | 1019.6 |
| 20260507051054 | 55 | 0 | 3.0 | 9.0 | 0.00 | 0.00 | 0.00 | 91 | 1019.7 |
| 20260507050553 | 55 | 226 | 3.0 | 11.0 | 0.00 | 0.00 | 0.00 | 91 | 1019.7 |
| 20260507050054 | 55 | 219 | 3.0 | 11.0 | 0.00 | 0.00 | 0.00 | 91 | 1019.7 |
| 20260507045556 | 56 | 259 | 3.0 | 9.0 | 0.00 | 0.00 | 0.00 | 91 | 1019.7 |
| 20260507045054 | 56 | 244 | 2.0 | 7.0 | 0.00 | 0.00 | 0.00 | 90 | 1019.7 |
| 20260507044556 | 56 | 165 | 2.0 | 8.0 | 0.00 | 0.00 | 0.00 | 90 | 1019.7 |
| 20260507044054 | 56 | 229 | 3.0 | 9.0 | 0.00 | 0.00 | 0.00 | 90 | 1019.6 |
| 20260507043554 | 56 | 206 | 2.0 | 9.0 | 0.00 | 0.00 | 0.00 | 90 | 1019.6 |
| 20260507043055 | 57 | 218 | 2.0 | 8.0 | 0.00 | 0.00 | 0.00 | 90 | 1019.6 |
| 20260507042554 | 57 | 234 | 1.0 | 8.0 | 0.00 | 0.00 | 0.00 | 89 | 1019.6 |
| 20260507042058 | 57 | 234 | 2.0 | 7.0 | 0.00 | 0.00 | 0.00 | 89 | 1019.6 |
| 20260507041555 | 57 | 225 | 1.0 | 4.0 | 0.00 | 0.00 | 0.00 | 89 | 1019.5 |
| 20260507041052 | 58 | 242 | 1.0 | 5.0 | 0.00 | 0.00 | 0.00 | 89 | 1019.4 |
| 20260507040557 | 58 | 200 | 0.0 | 5.0 | 0.00 | 0.00 | 0.00 | 89 | 1019.3 |
| 20260507035555 | 59 | 213 | 2.0 | 6.0 | 0.00 | 0.00 | 0.00 | 89 | 1019.2 |
| 20260507035054 | 59 | 158 | 2.0 | 8.0 | 0.00 | 0.00 | 0.00 | 89 | 1019.2 |
| 20260507034559 | 59 | 123 | 3.0 | 8.0 | 0.00 | 0.00 | 0.00 | 89 | 1019.2 |
| 20260507034054 | 59 | 138 | 3.0 | 8.0 | 0.00 | 0.00 | 0.00 | 89 | 1019.0 |
| 20260507033555 | 59 | 157 | 2.0 | 6.0 | 0.00 | 0.00 | 0.00 | 89 | 1019.1 |
| 20260507033103 | 59 | 108 | 2.0 | 6.0 | 0.00 | 0.00 | 0.00 | 89 | 1018.9 |
| 20260507032555 | 59 | 149 | 1.0 | 5.0 | 0.00 | 0.00 | 0.00 | 88 | 1018.9 |
| 20260507032054 | 59 | 131 | 1.0 | 5.0 | 0.00 | 0.00 | 0.00 | 88 | 1018.8 |
| 20260507031609 | 59 | 139 | 2.0 | 5.0 | 0.00 | 0.00 | 0.00 | 88 | 1018.8 |
| 20260507031056 | 59 | 166 | 2.0 | 5.0 | 0.00 | 0.00 | 0.00 | 88 | 1018.8 |
| 20260507030554 | 59 | 183 | 0.0 | 4.0 | 0.00 | 0.00 | 0.00 | 88 | 1018.8 |
| 20260507030055 | 59 | 0 | 0.0 | 3.0 | 0.00 | 0.00 | 0.00 | 87 | 1018.8 |
| 20260507025553 | 59 | 0 | 0.0 | 3.0 | 0.00 | 0.00 | 0.00 | 87 | 1018.8 |
| 20260507025054 | 59 | 0 | 0.0 | 3.0 | 0.00 | 0.00 | 0.00 | 87 | 1018.9 |
| 20260507024557 | 59 | 307 | 0.0 | 3.0 | 0.00 | 0.00 | 0.00 | 87 | 1018.9 |
| 20260507024053 | 60 | 176 | 0.0 | 7.0 | 0.00 | 0.00 | 0.00 | 86 | 1018.9 |
| 20260507023554 | 60 | 0 | 1.0 | 7.0 | 0.00 | 0.00 | 0.00 | 86 | 1018.7 |
| 20260507023055 | 60 | 227 | 0.0 | 7.0 | 0.00 | 0.00 | 0.00 | 86 | 1018.8 |
| 20260507022555 | 60 | 235 | 2.0 | 7.0 | 0.00 | 0.00 | 0.00 | 86 | 1018.7 |
| 20260507022055 | 60 | 221 | 2.0 | 8.0 | 0.00 | 0.00 | 0.00 | 85 | 1018.7 |
| 20260507021602 | 60 | 162 | 4.0 | 10.0 | 0.00 | 0.00 | 0.00 | 85 | 1018.7 |
| 20260507021055 | 60 | 0 | 1.0 | 10.0 | 0.00 | 0.00 | 0.00 | 85 | 1018.8 |
| 20260507020555 | 60 | 162 | 3.0 | 7.0 | 0.00 | 0.00 | 0.00 | 85 | 1018.8 |
| 20260507015554 | 61 | 161 | 1.0 | 5.0 | 0.00 | 0.00 | 0.00 | 84 | 1018.8 |
| 20260507015054 | 61 | 255 | 1.0 | 7.0 | 0.00 | 0.00 | 0.00 | 84 | 1018.7 |
| 20260507014559 | 61 | 0 | 1.0 | 7.0 | 0.00 | 0.00 | 0.00 | 84 | 1018.6 |
| 20260507014052 | 61 | 158 | 1.0 | 5.0 | 0.00 | 0.00 | 0.00 | 84 | 1018.8 |
| 20260507013553 | 61 | 188 | 1.0 | 5.0 | 0.00 | 0.00 | 0.00 | 84 | 1018.7 |
| 20260507013117 | 61 | 0 | 1.0 | 5.0 | 0.00 | 0.00 | 0.00 | 84 | 1018.7 |
| 20260507012555 | 61 | 267 | 2.0 | 9.0 | 0.00 | 0.00 | 0.00 | 84 | 1018.7 |
| 20260507012054 | 61 | 133 | 2.0 | 9.0 | 0.00 | 0.00 | 0.00 | 83 | 1018.6 |
| 20260507011612 | 61 | 201 | 3.0 | 7.0 | 0.00 | 0.00 | 0.00 | 83 | 1018.6 |
| 20260507011054 | 62 | 161 | 2.0 | 11.0 | 0.00 | 0.00 | 0.00 | 83 | 1018.6 |
| 20260507010554 | 61 | 0 | 2.0 | 11.0 | 0.00 | 0.00 | 0.00 | 83 | 1018.7 |
| 20260507010109 | 61 | 197 | 4.0 | 11.0 | 0.00 | 0.00 | 0.00 | 83 | 1018.7 |
| 20260507005556 | 61 | 205 | 3.0 | 10.0 | 0.00 | 0.00 | 0.00 | 83 | 1018.7 |
| 20260507005054 | 62 | 209 | 2.0 | 7.0 | 0.00 | 0.00 | 0.00 | 82 | 1018.7 |
| 20260507004605 | 62 | 0 | 1.0 | 12.0 | 0.00 | 0.00 | 0.00 | 83 | 1018.6 |
| 20260507004056 | 62 | 269 | 2.0 | 12.0 | 0.00 | 0.00 | 0.00 | 83 | 1018.7 |
| 20260507003554 | 61 | 211 | 4.0 | 12.0 | 0.00 | 0.00 | 0.00 | 83 | 1018.7 |
| 20260507003059 | 62 | 246 | 4.0 | 11.0 | 0.00 | 0.00 | 0.00 | 82 | 1018.6 |
| 20260507002554 | 62 | 0 | 2.0 | 14.0 | 0.00 | 0.00 | 0.00 | 83 | 1018.6 |
| 20260507002054 | 62 | 259 | 3.0 | 14.0 | 0.00 | 0.00 | 0.00 | 83 | 1018.6 |
| 20260507001558 | 62 | 244 | 4.0 | 14.0 | 0.00 | 0.00 | 0.00 | 81 | 1018.7 |
| 20260507001053 | 62 | 0 | 2.0 | 12.0 | 0.00 | 0.00 | 0.00 | 82 | 1018.8 |
| 20260507000555 | 62 | 223 | 2.0 | 12.0 | 0.00 | 0.00 | 0.00 | 82 | 1018.7 |
| 20260507000057 | 63 | 233 | 3.0 | 12.0 | 0.00 | 0.00 | 0.00 | 80 | 1018.8 |
| 20260506235556 | 63 | 192 | 2.0 | 11.0 | 0.00 | 0.00 | 0.00 | 81 | 1018.7 |
| 20260506235054 | 63 | 263 | 2.0 | 11.0 | 0.00 | 0.00 | 0.00 | 83 | 1018.9 |
| 20260506234558 | 62 | 294 | 3.0 | 12.0 | 0.00 | 0.00 | 0.00 | 82 | 1018.9 |
| 20260506234056 | 62 | 250 | 3.0 | 12.0 | 0.00 | 0.00 | 0.00 | 82 | 1018.9 |
| 20260506233555 | 62 | 248 | 3.0 | 10.0 | 0.00 | 0.00 | 0.00 | 82 | 1018.9 |
| 20260506233105 | 62 | 308 | 4.0 | 14.0 | 0.00 | 0.00 | 0.00 | 82 | 1018.9 |
| 20260506232555 | 62 | 211 | 5.0 | 14.0 | 0.00 | 0.00 | 0.00 | 81 | 1018.9 |
| 20260506232054 | 63 | 264 | 2.0 | 11.0 | 0.00 | 0.00 | 0.00 | 81 | 1019.0 |
| 20260506231605 | 63 | 253 | 4.0 | 11.0 | 0.00 | 0.00 | 0.00 | 79 | 1019.0 |
| 20260506231055 | 64 | 309 | 3.0 | 11.0 | 0.00 | 0.00 | 0.00 | 79 | 1019.0 |
| 20260506230554 | 64 | 267 | 3.0 | 11.0 | 0.00 | 0.00 | 0.00 | 79 | 1018.9 |
| 20260506230105 | 64 | 299 | 2.0 | 9.0 | 0.00 | 0.00 | 0.00 | 79 | 1019.0 |
| 20260506225559 | 64 | 205 | 3.0 | 9.0 | 0.00 | 0.00 | 0.00 | 79 | 1019.0 |
| 20260506225056 | 64 | 230 | 3.0 | 9.0 | 0.00 | 0.00 | 0.00 | 79 | 1019.2 |
| 20260506224555 | 64 | 250 | 4.0 | 10.0 | 0.00 | 0.00 | 0.00 | 78 | 1019.2 |
| 20260506224054 | 64 | 258 | 2.0 | 10.0 | 0.00 | 0.00 | 0.00 | 79 | 1019.2 |
| 20260506223555 | 64 | 251 | 3.0 | 10.0 | 0.00 | 0.00 | 0.00 | 78 | 1019.3 |
| 20260506223057 | 64 | 198 | 3.0 | 10.0 | 0.00 | 0.00 | 0.00 | 79 | 1019.4 |
| 20260506222556 | 64 | 200 | 3.0 | 10.0 | 0.00 | 0.00 | 0.00 | 78 | 1019.4 |
| 20260506222054 | 64 | 252 | 3.0 | 10.0 | 0.00 | 0.00 | 0.00 | 79 | 1019.5 |
| 20260506221600 | 64 | 230 | 2.0 | 13.0 | 0.00 | 0.00 | 0.00 | 80 | 1019.5 |
| 20260506221057 | 63 | 267 | 4.0 | 13.0 | 0.00 | 0.00 | 0.00 | 80 | 1019.6 |
| 20260506220557 | 63 | 289 | 4.0 | 12.0 | 0.00 | 0.00 | 0.00 | 79 | 1019.6 |
| 20260506220059 | 64 | 236 | 4.0 | 12.0 | 0.00 | 0.00 | 0.00 | 79 | 1019.8 |
| 20260506215558 | 65 | 301 | 4.0 | 11.0 | 0.00 | 0.00 | 0.00 | 77 | 1019.9 |
| 20260506215054 | 65 | 169 | 2.0 | 10.0 | 0.00 | 0.00 | 0.00 | 78 | 1019.9 |
| 20260506214601 | 65 | 232 | 4.0 | 10.0 | 0.00 | 0.00 | 0.00 | 77 | 1019.9 |
| 20260506214054 | 65 | 306 | 2.0 | 10.0 | 0.00 | 0.00 | 0.00 | 77 | 1019.8 |
| 20260506213555 | 65 | 290 | 4.0 | 9.0 | 0.00 | 0.00 | 0.00 | 77 | 1019.9 |
| 20260506213057 | 66 | 238 | 2.0 | 9.0 | 0.00 | 0.00 | 0.00 | 76 | 1020.0 |
| 20260506212554 | 66 | 200 | 3.0 | 9.0 | 0.00 | 0.00 | 0.00 | 75 | 1019.9 |
| 20260506212055 | 66 | 285 | 3.0 | 10.0 | 0.00 | 0.00 | 0.00 | 75 | 1019.9 |
| 20260506211607 | 66 | 0 | 2.0 | 10.0 | 0.00 | 0.00 | 0.00 | 75 | 1019.9 |
| 20260506211055 | 66 | 205 | 2.0 | 9.0 | 0.00 | 0.00 | 0.00 | 76 | 1020.0 |
| 20260506210555 | 66 | 262 | 3.0 | 9.0 | 0.00 | 0.00 | 0.00 | 74 | 1019.9 |
| 20260506210054 | 67 | 202 | 2.0 | 9.0 | 0.00 | 0.00 | 0.00 | 74 | 1019.8 |
| 20260506205554 | 67 | 248 | 2.0 | 9.0 | 0.00 | 0.00 | 0.00 | 74 | 1019.9 |
| 20260506205054 | 67 | 234 | 2.0 | 9.0 | 0.00 | 0.00 | 0.00 | 73 | 1019.9 |
| 20260506204600 | 67 | 241 | 1.0 | 7.0 | 0.00 | 0.00 | 0.00 | 73 | 1020.0 |
| 20260506204058 | 67 | 215 | 0.0 | 7.0 | 0.00 | 0.00 | 0.00 | 74 | 1019.9 |
| 20260506203555 | 67 | 244 | 1.0 | 7.0 | 0.00 | 0.00 | 0.00 | 74 | 1020.0 |
| 20260506203059 | 67 | 240 | 1.0 | 7.0 | 0.00 | 0.00 | 0.00 | 73 | 1020.0 |
| 20260506202555 | 67 | 245 | 1.0 | 6.0 | 0.00 | 0.00 | 0.00 | 74 | 1020.1 |
| 20260506202055 | 67 | 220 | 1.0 | 6.0 | 0.00 | 0.00 | 0.00 | 73 | 1020.1 |
| 20260506201553 | 66 | 0 | 2.0 | 6.0 | 0.00 | 0.00 | 0.00 | 74 | 1020.2 |
| 20260506201051 | 66 | 209 | 1.0 | 5.0 | 0.00 | 0.00 | 0.00 | 72 | 1020.3 |
| 20260506200555 | 66 | 248 | 0.0 | 5.0 | 0.00 | 0.00 | 0.00 | 73 | 1020.3 |
| 20260506200055 | 66 | 300 | 1.0 | 7.0 | 0.00 | 0.00 | 0.00 | 75 | 1020.3 |
| 20260506195556 | 65 | 0 | 2.0 | 7.0 | 0.00 | 0.00 | 0.00 | 74 | 1020.4 |
| 20260506195056 | 65 | 0 | 1.0 | 5.0 | 0.00 | 0.00 | 0.00 | 74 | 1020.4 |
| 20260506194556 | 65 | 238 | 2.0 | 4.0 | 0.00 | 0.00 | 0.00 | 73 | 1020.4 |
| 20260506194055 | 65 | 223 | 0.0 | 5.0 | 0.00 | 0.00 | 0.00 | 75 | 1020.4 |
| 20260506193554 | 64 | 259 | 1.0 | 5.0 | 0.00 | 0.00 | 0.00 | 75 | 1020.5 |
| 20260506193055 | 64 | 276 | 0.0 | 3.0 | 0.00 | 0.00 | 0.00 | 75 | 1020.5 |
| 20260506192554 | 64 | 194 | 0.0 | 3.0 | 0.00 | 0.00 | 0.00 | 76 | 1020.6 |
| 20260506192056 | 63 | 215 | 1.0 | 5.0 | 0.00 | 0.00 | 0.00 | 76 | 1020.6 |